timestamp,surface_pressure_avg,surface_temp_avg,battery_voltage,lat,long
2024-02-01 00:09:00+00:00,262.5847,1.22,11.53,47.84626,-54.09684
2024-02-01 00:19:00+00:00,272.4647,1.2,11.46,47.84626,-54.09684
2024-02-01 00:29:00+00:00,276.3664,1.2,11.46,47.84626,-54.09684
2024-02-01 00:39:00+00:00,274.7781,1.2,11.46,47.84626,-54.09684
2024-02-01 00:49:00+00:00,281.9331,1.2,11.46,47.84626,-54.09684
2024-02-01 00:59:00+00:00,286.5297,1.2,11.46,47.84626,-54.09684
2024-02-01 01:09:00+00:00,289.2497,1.2,11.46,47.84626,-54.09684
2024-02-01 01:19:00+00:00,292.8331,1.2,11.46,47.84626,-54.09684
2024-02-01 01:29:00+00:00,299.8347,1.2,11.46,47.84626,-54.09684
2024-02-01 01:39:00+00:00,302.0447,1.2,11.46,47.84626,-54.09684
2024-02-01 01:49:00+00:00,301.8781,1.2,11.46,47.84626,-54.09684
2024-02-01 01:59:00+00:00,307.4113,1.2,11.46,47.84626,-54.09684
2024-02-01 02:09:00+00:00,317.4714,1.2,11.46,47.84626,-54.09684
2024-02-01 02:19:00+00:00,323.2496,1.17,11.46,47.84626,-54.09684
2024-02-01 02:29:00+00:00,324.0829,1.0,11.46,47.84626,-54.09684
2024-02-01 02:39:00+00:00,325.6813,0.9,11.46,47.84626,-54.09684
2024-02-01 02:49:00+00:00,334.7164,0.9,11.46,47.84626,-54.09684
2024-02-01 02:59:00+00:00,335.1695,0.9,11.46,47.84626,-54.09684
2024-02-01 03:09:00+00:00,335.7996,0.9,11.46,47.84626,-54.09684
2024-02-01 11:19:00+00:00,242.7464,0.8,11.46,47.84626,-54.09684
2024-02-01 11:29:00+00:00,250.5697,0.8,11.46,47.84626,-54.09684
2024-02-01 11:39:00+00:00,261.8415,0.81,11.46,47.84626,-54.09684
2024-02-01 11:49:00+00:00,259.8414,0.89,11.46,47.84626,-54.09684
2024-02-01 11:59:00+00:00,256.7964,0.9,11.46,47.84626,-54.09684
2024-02-01 12:09:00+00:00,266.2947,0.9,11.46,47.84626,-54.09684
2024-02-01 12:19:00+00:00,271.4547,1.0,11.86,47.84626,-54.09684
2024-02-01 12:29:00+00:00,267.9047,1.0,11.86,47.84626,-54.09684
2024-02-01 12:39:00+00:00,266.7331,1.0,11.86,47.84626,-54.09684
2024-02-01 12:49:00+00:00,278.468,1.05,11.86,47.84626,-54.09684
2024-02-01 12:59:00+00:00,284.493,1.05,11.86,47.84626,-54.09684
2024-02-01 13:09:00+00:00,284.5997,1.1,11.86,47.84626,-54.09684
2024-02-01 13:19:00+00:00,287.0164,1.1,12.09,47.84626,-54.09684
2024-02-01 13:29:00+00:00,294.5081,1.1,12.09,47.84626,-54.09684
2024-02-01 13:39:00+00:00,298.388,1.1,12.09,47.84626,-54.09684
2024-02-01 13:49:00+00:00,300.6764,1.16,12.09,47.84626,-54.09684
2024-02-01 13:59:00+00:00,307.8397,1.1,12.09,47.84626,-54.09684
2024-02-01 14:09:00+00:00,317.593,1.1,12.09,47.84626,-54.09684
2024-02-01 14:19:00+00:00,323.393,0.9,12.17,47.84626,-54.09684
2024-02-01 14:29:00+00:00,323.7531,0.7,12.17,47.84626,-54.09684
2024-02-01 14:39:00+00:00,328.2396,0.6,12.17,47.84626,-54.09684
2024-02-01 14:49:00+00:00,335.5197,0.6,12.17,47.84626,-54.09684
2024-02-01 14:59:00+00:00,337.2114,0.5,12.17,47.84626,-54.09684
2024-02-01 15:09:00+00:00,338.4529,0.48,12.17,47.84626,-54.09684
2024-02-01 15:19:00+00:00,339.5464,0.45,12.09,47.84626,-54.09684
2024-02-01 15:29:00+00:00,341.8230000000001,0.5,12.09,47.84626,-54.09684
2024-02-01 15:39:00+00:00,340.2479,0.6,12.09,47.84626,-54.09684
2024-02-01 15:49:00+00:00,338.1197,0.7,12.09,47.84626,-54.09684
2024-02-01 15:59:00+00:00,341.1296,0.8,12.09,47.84626,-54.09684
2024-02-01 16:09:00+00:00,344.1862,0.83,12.09,47.84626,-54.09684
2024-02-01 16:19:00+00:00,341.2146,0.87,12.17,47.84626,-54.09684
2024-02-01 16:29:00+00:00,337.728,0.86,12.17,47.84626,-54.09684
2024-02-01 16:39:00+00:00,339.0164,0.82,12.17,47.84626,-54.09684
2024-02-01 16:49:00+00:00,337.2597,0.8,12.17,47.84626,-54.09684
2024-02-01 16:59:00+00:00,333.088,0.82,12.17,47.84626,-54.09684
2024-02-01 17:09:00+00:00,332.213,0.8,12.17,47.84626,-54.09684
2024-02-01 17:19:00+00:00,332.0063,0.8,12.09,47.84626,-54.09684
2024-02-01 17:29:00+00:00,326.3513,0.8,12.09,47.84626,-54.09684
2024-02-01 17:39:00+00:00,322.9714,0.8,12.09,47.84626,-54.09684
2024-02-01 17:49:00+00:00,325.5247,0.8,12.09,47.84626,-54.09684
2024-02-01 17:59:00+00:00,322.4581,0.8,12.09,47.84626,-54.09684
2024-02-01 18:09:00+00:00,314.5513,0.74,12.09,47.84626,-54.09684
2024-02-01 18:19:00+00:00,310.5264,0.7,11.7,47.84626,-54.09684
2024-02-01 18:29:00+00:00,309.093,0.7,11.7,47.84626,-54.09684
2024-02-01 18:39:00+00:00,299.943,0.7,11.7,47.84626,-54.09684
2024-02-01 18:49:00+00:00,290.0781,0.7,11.7,47.84626,-54.09684
2024-02-01 18:59:00+00:00,286.4847,0.7,11.7,47.84626,-54.09684
2024-02-01 19:09:00+00:00,282.8647,0.7,11.7,47.84626,-54.09684
2024-02-01 19:19:00+00:00,273.9964,0.7,11.61,47.84626,-54.09684
2024-02-01 19:29:00+00:00,266.3981,0.7,11.61,47.84626,-54.09684
2024-02-01 19:39:00+00:00,262.2348,0.7,11.61,47.84626,-54.09684
2024-02-01 19:49:00+00:00,258.2364,0.7,11.61,47.84626,-54.09684
2024-02-01 19:59:00+00:00,251.3297,0.7,11.61,47.84626,-54.09684
2024-02-01 20:09:00+00:00,245.6764,0.7,11.61,47.84626,-54.09684
2024-02-01 20:19:00+00:00,243.1731,0.7,11.61,47.84626,-54.09684
2024-02-01 20:29:00+00:00,240.6581,0.7,11.61,47.84626,-54.09684
2024-02-01 20:39:00+00:00,236.2164,0.7,11.61,47.84626,-54.09684
2024-02-01 20:49:00+00:00,230.1281,0.69,11.61,47.84626,-54.09684
2024-02-01 20:59:00+00:00,226.4981,0.65,11.61,47.84626,-54.09684
2024-02-01 21:09:00+00:00,227.2198,0.64,11.61,47.84626,-54.09684
2024-02-01 21:19:00+00:00,229.2047,0.68,11.61,47.84626,-54.09684
2024-02-01 21:29:00+00:00,225.5664,0.68,11.61,47.84626,-54.09684
2024-02-01 21:39:00+00:00,225.453,0.68,11.61,47.84626,-54.09684
2024-02-01 21:49:00+00:00,230.6214,0.7,11.61,47.84626,-54.09684
2024-02-01 21:59:00+00:00,230.1898,0.7,11.61,47.84626,-54.09684
2024-02-01 22:09:00+00:00,229.7514,0.7,11.61,47.84626,-54.09684
2024-02-01 22:19:00+00:00,233.8814,0.7,11.53,47.84626,-54.09684
2024-02-01 22:29:00+00:00,238.8347,0.72,11.53,47.84626,-54.09684
2024-02-01 22:39:00+00:00,239.0497,0.76,11.53,47.84626,-54.09684
2024-02-01 22:49:00+00:00,241.2564,0.75,11.53,47.84626,-54.09684
2024-02-01 22:59:00+00:00,244.7997,0.77,11.53,47.84626,-54.09684
2024-02-01 23:09:00+00:00,248.5981,0.79,11.53,47.84626,-54.09684
2024-02-01 23:19:00+00:00,250.0131,0.8,11.53,47.84626,-54.09684
2024-02-01 23:29:00+00:00,253.2664,0.8,11.53,47.84626,-54.09684
2024-02-01 23:39:00+00:00,257.703,0.8,11.53,47.84626,-54.09684
2024-02-01 23:49:00+00:00,258.058,0.8,11.53,47.84626,-54.09684
2024-02-01 23:59:00+00:00,258.2547,0.8,11.53,47.84626,-54.09684
